TimeCST,TemperatureF,Dew PointF,Humidity,Sea Level PressureIn,VisibilityMPH,Wind Direction,Wind SpeedMPH,Gust SpeedMPH,PrecipitationIn,Events,Conditions,WindDirDegrees,DateUTC
12:13 AM,23.4,20.7,89,30.23,10.0,SE,4.6,-,N/A,,Clear,130,2013-11-19 06:13:00
12:33 AM,23.0,20.1,89,30.22,10.0,ESE,3.5,-,N/A,,Clear,120,2013-11-19 06:33:00
12:53 AM,22.3,19.6,89,30.23,10.0,ESE,3.5,-,N/A,,Clear,120,2013-11-19 06:53:00
1:14 AM,22.3,19.9,91,30.22,10.0,Calm,Calm,-,N/A,,Clear,0,2013-11-19 07:14:00
1:33 AM,21.9,19.9,92,30.22,10.0,ESE,3.5,-,N/A,,Clear,110,2013-11-19 07:33:00
1:54 AM,22.6,20.1,90,30.21,10.0,East,4.6,-,N/A,,Clear,100,2013-11-19 07:54:00
2:14 AM,22.8,20.1,89,30.21,10.0,East,4.6,-,N/A,,Clear,100,2013-11-19 08:14:00
2:33 AM,23.5,20.3,87,30.21,10.0,ESE,4.6,-,N/A,,Clear,110,2013-11-19 08:33:00
2:53 AM,23.9,20.3,86,30.20,10.0,ESE,5.8,-,N/A,,Clear,110,2013-11-19 08:53:00
3:14 AM,23.9,20.8,88,30.19,10.0,ESE,6.9,-,N/A,,Clear,110,2013-11-19 09:14:00
3:33 AM,24.6,21.0,86,30.19,10.0,East,8.1,-,N/A,,Clear,100,2013-11-19 09:33:00
3:54 AM,24.8,21.2,86,30.19,10.0,ESE,9.2,-,N/A,,Clear,110,2013-11-19 09:54:00
4:13 AM,25.2,21.2,85,30.18,10.0,ESE,9.2,-,N/A,,Clear,110,2013-11-19 10:13:00
4:33 AM,24.8,21.2,86,30.17,10.0,ESE,10.4,-,N/A,,Clear,110,2013-11-19 10:33:00
4:54 AM,25.2,21.4,86,30.16,10.0,East,9.2,-,N/A,,Clear,100,2013-11-19 10:54:00
5:14 AM,25.2,21.2,85,30.16,10.0,ESE,9.2,-,N/A,,Clear,110,2013-11-19 11:14:00
5:33 AM,25.3,21.6,86,30.16,10.0,East,9.2,-,N/A,,Clear,100,2013-11-19 11:33:00
5:54 AM,25.2,21.2,85,30.14,10.0,East,10.4,-,N/A,,Clear,100,2013-11-19 11:54:00
6:13 AM,25.5,21.6,85,30.13,10.0,ESE,12.7,-,N/A,,Clear,110,2013-11-19 12:13:00
6:33 AM,26.1,22.1,85,30.12,10.0,ESE,11.5,-,N/A,,Clear,110,2013-11-19 12:33:00
6:53 AM,26.6,22.6,85,30.12,10.0,ESE,11.5,-,N/A,,Clear,110,2013-11-19 12:53:00
7:13 AM,27.0,22.8,84,30.12,10.0,ESE,9.2,-,N/A,,Clear,110,2013-11-19 13:13:00
7:33 AM,26.6,22.8,86,30.12,10.0,East,11.5,-,N/A,,Clear,100,2013-11-19 13:33:00
7:53 AM,27.5,23.0,83,30.10,10.0,East,12.7,-,N/A,,Clear,100,2013-11-19 13:53:00
8:14 AM,28.6,23.4,81,30.09,10.0,ESE,15.0,18.4,N/A,,Clear,110,2013-11-19 14:14:00
8:33 AM,29.3,23.9,80,30.08,10.0,ESE,12.7,-,N/A,,Clear,110,2013-11-19 14:33:00
8:54 AM,30.0,25.0,82,30.08,10.0,ESE,12.7,-,N/A,,Clear,120,2013-11-19 14:54:00
9:13 AM,31.8,26.2,80,30.07,10.0,SE,13.8,19.6,N/A,,Clear,130,2013-11-19 15:13:00
9:33 AM,34.5,27.9,77,30.07,10.0,SE,17.3,20.7,N/A,,Clear,130,2013-11-19 15:33:00
9:53 AM,36.3,28.0,72,30.05,10.0,SE,16.1,23.0,N/A,,Clear,140,2013-11-19 15:53:00
10:13 AM,37.2,28.6,71,30.05,10.0,SE,12.7,20.7,N/A,,Clear,140,2013-11-19 16:13:00
10:33 AM,39.0,29.5,69,30.04,10.0,SE,15.0,23.0,N/A,,Clear,140,2013-11-19 16:33:00
10:53 AM,40.6,30.0,66,30.03,10.0,SSE,9.2,19.6,N/A,,Clear,150,2013-11-19 16:53:00
11:13 AM,42.1,30.7,64,30.02,10.0,SSE,10.4,19.6,N/A,,Clear,150,2013-11-19 17:13:00
11:33 AM,44.2,31.1,60,30.01,10.0,SSE,17.3,23.0,N/A,,Clear,160,2013-11-19 17:33:00
11:54 AM,46.0,31.6,57,30.00,10.0,SSE,12.7,24.2,N/A,,Clear,150,2013-11-19 17:54:00
12:13 PM,46.6,31.5,56,29.99,10.0,SSE,12.7,23.0,N/A,,Clear,150,2013-11-19 18:13:00
12:32 PM,46.8,31.3,55,29.97,10.0,SSE,15.0,25.3,N/A,,Clear,150,2013-11-19 18:32:00
12:53 PM,46.8,31.8,56,29.96,10.0,SE,20.7,27.6,N/A,,Clear,140,2013-11-19 18:53:00
1:13 PM,48.0,32.0,54,29.95,10.0,SE,15.0,21.9,N/A,,Clear,140,2013-11-19 19:13:00
1:33 PM,47.7,32.0,55,29.95,10.0,SSE,13.8,23.0,N/A,,Clear,150,2013-11-19 19:33:00
1:54 PM,48.4,32.5,54,29.93,10.0,SSE,12.7,23.0,N/A,,Clear,150,2013-11-19 19:54:00
2:13 PM,48.6,32.2,53,29.92,10.0,SSE,16.1,24.2,N/A,,Clear,150,2013-11-19 20:13:00
2:34 PM,48.4,32.4,54,29.91,10.0,SSE,19.6,26.5,N/A,,Clear,150,2013-11-19 20:34:00
2:54 PM,48.6,32.4,54,29.90,10.0,SSE,15.0,23.0,N/A,,Clear,150,2013-11-19 20:54:00
3:13 PM,48.4,32.2,54,29.90,10.0,SSE,13.8,24.2,N/A,,Clear,150,2013-11-19 21:13:00
3:33 PM,47.7,32.4,55,29.89,10.0,SSE,16.1,23.0,N/A,,Clear,150,2013-11-19 21:33:00
3:53 PM,47.5,32.9,57,29.89,10.0,SE,16.1,25.3,N/A,,Clear,140,2013-11-19 21:53:00
4:14 PM,46.0,32.9,60,29.88,10.0,SE,15.0,21.9,N/A,,Clear,140,2013-11-19 22:14:00
4:33 PM,45.7,32.9,61,29.88,10.0,SSE,16.1,24.2,N/A,,Clear,150,2013-11-19 22:33:00
4:53 PM,45.5,32.9,61,29.87,10.0,SE,19.6,25.3,N/A,,Clear,140,2013-11-19 22:53:00
5:13 PM,45.1,32.9,62,29.87,10.0,SE,18.4,26.5,N/A,,Clear,140,2013-11-19 23:13:00
5:33 PM,43.7,32.9,66,29.87,10.0,SE,16.1,23.0,N/A,,Clear,140,2013-11-19 23:33:00
5:53 PM,43.5,32.9,66,29.87,10.0,SE,15.0,21.9,N/A,,Clear,140,2013-11-19 23:53:00
6:13 PM,43.7,32.9,66,29.87,10.0,SE,16.1,24.2,N/A,,Clear,140,2013-11-20 00:13:00
6:33 PM,43.7,33.1,66,29.86,10.0,SE,15.0,25.3,N/A,,Clear,140,2013-11-20 00:33:00
6:54 PM,43.7,33.1,66,29.86,10.0,SSE,13.8,24.2,N/A,,Clear,150,2013-11-20 00:54:00
7:14 PM,43.7,33.1,66,29.86,10.0,SSE,16.1,25.3,N/A,,Clear,150,2013-11-20 01:14:00
7:33 PM,43.5,33.3,67,29.85,10.0,SE,15.0,25.3,N/A,,Clear,140,2013-11-20 01:33:00
7:53 PM,43.2,33.1,68,29.85,10.0,SSE,15.0,26.5,N/A,,Clear,150,2013-11-20 01:53:00
8:14 PM,43.0,32.9,68,29.86,10.0,SSE,16.1,23.0,N/A,,Clear,150,2013-11-20 02:14:00
8:34 PM,42.8,32.9,68,29.86,10.0,SSE,11.5,21.9,N/A,,Clear,150,2013-11-20 02:34:00
8:53 PM,43.3,32.9,67,29.86,10.0,SSE,13.8,21.9,N/A,,Clear,150,2013-11-20 02:53:00
9:14 PM,43.9,32.9,65,29.86,10.0,SSE,13.8,21.9,N/A,,Clear,150,2013-11-20 03:14:00
9:33 PM,43.9,32.9,65,29.86,10.0,SSE,10.4,27.6,N/A,,Clear,150,2013-11-20 03:33:00
9:53 PM,43.7,32.9,66,29.86,10.0,SSE,10.4,17.3,N/A,,Clear,160,2013-11-20 03:53:00
10:13 PM,43.3,32.7,66,29.86,10.0,SSE,9.2,18.4,N/A,,Clear,160,2013-11-20 04:13:00
10:33 PM,44.2,32.4,63,29.86,10.0,SSE,12.7,20.7,N/A,,Clear,160,2013-11-20 04:33:00
10:54 PM,44.8,32.4,62,29.85,10.0,SSE,13.8,23.0,N/A,,Clear,160,2013-11-20 04:54:00
11:13 PM,44.6,32.4,62,29.85,10.0,South,18.4,23.0,N/A,,Clear,170,2013-11-20 05:13:00
11:33 PM,44.6,32.5,63,29.85,10.0,SSE,16.1,23.0,N/A,,Clear,160,2013-11-20 05:33:00
11:54 PM,44.4,32.5,63,29.85,10.0,South,13.8,26.5,N/A,,Clear,170,2013-11-20 05:54:00